Dewpoint
34 35 35 35 35 35 35 35 35 35 35 34 34 35 35 36 38 39 41 43 45 47 50 54 63 65 64 62 62 62 62 61 62 61 60 59 60 62 63 63 63 63 63
33 34 34 34 35 35 35 34 34 34 34 33 34 35 35 36 37 39 40 43 45 47 48 50 56 63 64 64 62 61 61 61 62 59 60 57 58 61 61 62 63 62 63
33 33 33 34 34 34 34 33 33 34 35 34 34 35 35 36 36 38 39 41 43 45 46 50 53 60 63 64 62 61 61 60 61 60 59 55 55 57 59 61 62 62 62
33 33 32 33 33 34 32 33 33 34 34 34 34 34 34 34 36 37 39 41 43 44 46 48 51 54 62 62 62 62 61 61 59 60 58 56 55 55 55 58 61 61 61
32 32 32 33 34 33 31 33 33 34 34 34 34 35 34 35 36 38 39 41 43 43 46 48 51 52 60 62 63 62 61 61 60 59 59 56 56 55 54 55 57 60 61
32 32 33 33 33 30 31 31 33 33 34 34 35 35 34 35 36 37 39 41 43 45 46 48 51 52 55 61 61 63 62 61 60 60 59 57 55 55 54 52 55 57 59
31 32 32 33 30 29 30 31 32 32 33 34 35 35 35 36 36 38 40 41 43 45 47 49 51 51 52 60 60 59 57 62 61 61 60 59 57 58 56 55 54 55 57
31 32 33 32 30 30 31 32 32 32 33 33 34 35 36 37 37 38 39 41 44 47 49 51 51 52 54 58 57 56 55 53 62 61 61 59 59 58 58 56 55 53 53
31 32 33 32 31 31 31 32 32 32 33 33 34 35 37 37 38 38 41 42 44 46 50 53 52 52 57 54 55 53 52 55 62 61 61 60 59 58 58 57 57 55 52
32 32 33 32 31 31 31 31 32 32 33 34 34 35 37 37 38 39 39 41 43 45 50 52 52 56 56 54 54 52 53 55 60 62 61 60 60 59 59 58 57 56 55
31 31 32 31 32 31 31 30 31 31 32 33 33 34 36 37 37 38 39 40 42 45 48 52 54 55 53 53 53 52 52 55 54 57 61 60 60 60 60 59 58 57 55
31 31 31 30 30 31 30 29 30 30 31 32 33 34 35 35 36 36 37 39 41 43 45 47 50 53 55 52 52 52 52 55 55 53 53 60 60 59 59 59 58 58 57
30 30 29 26 28 30 30 29 29 30 30 30 32 32 34 33 34 35 36 38 40 40 42 44 46 50 52 55 55 55 54 53 54 53 52 55 60 59 60 59 58 57 57
30 29 27 24 25 28 29 28 29 29 29 30 31 31 32 32 33 34 35 37 38 38 40 42 46 45 54 52 54 55 54 53 52 52 53 54 61 59 60 59 58 58 58
29 29 28 24 23 25 27 28 29 28 29 29 29 30 31 31 32 32 33 34 36 37 37 38 40 40 38 37 40 51 53 52 51 52 53 54 60 55 57 60 59 59 58
28 28 27 29 26 26 26 27 28 27 28 29 30 30 30 29 30 30 31 32 34 35 35 35 35 36 35 35 36 38 51 53 53 52 54 56 54 53 49 49 51 57 58
26 26 26 27 26 26 26 26 26 26 27 29 30 32 29 28 28 29 29 30 32 33 33 33 33 33 34 34 35 37 46 55 56 56 58 60 59 54 58 47 46 45 46
24 23 24 24 23 24 24 26 25 25 26 29 30 30 31 28 27 27 27 28 31 32 31 31 31 32 32 34 35 36 50 53 55 57 58 59 58 57 57 53 47 44 44
23 23 24 23 23 23 24 23 23 24 26 29 29 29 30 28 27 26 26 27 28 30 30 30 30 30 31 33 34 38 44 41 39 39 40 48 55 47 48 51 41 38 37
22 22 23 23 22 23 24 23 23 24 25 28 28 28 30 29 26 25 25 26 27 28 28 28 30 30 30 32 34 35 36 35 36 35 34 34 39 42 41 43 41 38 35
21 21 21 21 21 23 24 22 23 24 26 27 27 28 29 30 27 26 25 25 26 27 27 28 29 30 31 31 33 33 32 33 32 32 32 33 34 38 41 43 43 40 35
20 20 19 19 20 21 24 21 23 25 26 26 26 28 28 28 28 25 25 25 25 25 26 26 28 29 31 32 32 32 31 31 30 30 31 32 33 34 34 34 34 34 34
19 20 19 18 19 20 22 21 23 25 26 26 26 27 27 28 29 26 25 25 25 25 25 25 26 28 30 31 33 31 31 30 29 30 30 31 31 31 31 32 32 33 34
18 20 17 17 19 20 21 21 23 25 26 25 25 26 27 27 28 27 26 26 24 25 25 25 25 27 28 29 31 31 30 30 29 29 29 29 29 29 28 29 30 30 30
17 19 17 18 18 20 21 22 23 25 26 25 26 27 28 27 27 27 27 26 25 27 26 26 26 26 26 29 31 31 30 30 30 29 28 28 27 27 27 27 27 28 28
19 18 19 19 19 19 20 22 24 25 27 24 25 27 27 27 26 26 23 23 24 25 27 28 27 27 29 30 30 30 29 28 29 28 27 26 26 26 26 26 26 27 27
Lifted_Index
9 10 11 11 11 11 11 11 10 10 9 9 9 9 8 8 8 8 8 8 8 8 7 4 -0 -3 -4 -4 -4 -4 -4 -4 -4 -4 -3 -3 -2 -2 -1 -1 0 1 0
8 9 10 11 11 11 11 11 11 10 10 10 9 9 8 8 8 8 7 7 8 8 7 5 2 -2 -4 -4 -4 -4 -4 -4 -4 -4 -4 -3 -2 -2 -2 -1 -0 0 0
8 8 9 10 11 12 12 12 11 11 10 10 10 9 8 7 7 7 7 7 7 8 8 7 4 1 -2 -4 -4 -4 -4 -4 -4 -4 -4 -3 -2 -2 -2 -2 -1 -0 0
8 8 9 11 11 12 12 12 11 11 10 10 10 9 7 6 6 6 6 6 6 7 7 7 6 3 -0 -3 -4 -4 -4 -4 -4 -4 -4 -4 -3 -2 -2 -2 -1 -1 -1
9 9 10 11 12 12 12 12 11 11 10 10 9 8 6 6 6 6 6 6 6 6 6 6 6 4 1 -2 -3 -4 -4 -4 -4 -4 -4 -4 -3 -2 -2 -1 -1 -1 -1
9 10 11 12 12 12 11 11 11 11 10 10 9 7 6 6 6 6 6 6 6 6 6 5 5 5 3 -0 -2 -2 -3 -3 -4 -4 -4 -4 -4 -3 -2 -1 -1 -1 -0
10 11 11 11 11 11 11 11 12 11 10 9 8 7 6 6 5 5 5 6 6 6 5 4 4 4 2 0 -0 0 0 -1 -3 -4 -4 -4 -4 -3 -2 -1 -1 -0 -0
11 11 11 11 11 10 11 12 12 12 10 9 8 8 7 6 6 5 5 5 5 4 3 3 3 3 1 -0 0 2 3 2 -2 -4 -4 -4 -4 -3 -3 -2 -1 -1 -1
11 11 11 11 11 11 12 13 13 12 11 10 9 8 7 7 6 6 6 5 3 2 2 2 2 1 -0 -1 -0 1 3 3 -1 -3 -4 -4 -4 -4 -3 -3 -3 -2 -1
10 10 11 11 11 11 12 13 13 12 11 11 10 9 8 8 7 7 6 4 3 1 1 1 1 0 -0 -0 -0 1 2 2 0 -2 -3 -3 -4 -4 -4 -3 -3 -3 -2
9 10 10 11 11 11 12 13 13 13 12 11 10 9 9 8 8 7 5 4 2 1 0 0 0 0 0 0 1 1 2 2 1 -1 -2 -3 -4 -4 -4 -3 -3 -3 -3
10 10 10 10 10 10 11 12 13 13 13 12 11 10 9 9 8 6 5 4 3 1 0 0 0 0 0 1 1 1 2 2 2 1 -0 -2 -3 -4 -4 -3 -3 -3 -3
10 10 10 10 10 10 11 12 13 14 13 13 11 10 10 9 8 7 6 5 4 2 1 0 0 0 1 1 1 1 2 3 3 2 2 -0 -3 -4 -4 -4 -3 -3 -3
10 10 10 10 9 10 11 12 13 14 14 13 12 11 10 10 9 8 7 6 5 3 2 1 0 0 0 0 0 1 2 3 3 3 3 1 -2 -4 -4 -4 -3 -3 -3
10 10 10 10 10 10 11 12 13 14 14 13 12 12 11 11 10 9 8 7 5 4 4 3 2 1 1 1 1 1 2 4 4 4 3 2 -2 -4 -4 -4 -4 -3 -3
9 9 10 10 10 11 11 12 13 14 14 14 13 13 12 12 11 10 9 7 6 5 4 4 3 3 2 2 2 2 3 4 4 4 3 1 -2 -4 -5 -5 -5 -4 -4
9 9 10 11 11 12 12 13 13 14 14 14 14 13 13 12 11 10 9 8 8 6 5 5 4 4 3 3 3 2 3 3 2 2 1 0 -2 -4 -5 -5 -5 -4 -4
9 10 10 11 12 12 13 13 14 14 14 14 14 14 13 13 12 11 10 9 9 8 7 6 5 4 4 3 3 2 2 2 1 0 -0 -1 -2 -3 -3 -4 -4 -4 -4
9 10 11 12 12 13 13 13 13 13 13 13 14 15 14 13 12 11 11 10 10 9 9 8 6 4 3 3 3 2 2 2 1 1 0 -1 -1 -2 -2 -2 -3 -3 -3
9 10 11 12 13 13 14 14 13 13 13 14 15 15 15 14 13 12 12 11 10 10 10 9 8 6 4 3 3 2 2 2 2 2 1 1 -0 -1 -1 -1 -2 -2 -2
10 10 11 12 13 14 14 14 13 14 15 15 15 15 15 14 14 13 13 12 11 10 10 10 10 8 7 6 5 4 3 3 2 2 2 2 1 0 -0 0 0 0 0
10 11 12 12 13 14 14 14 14 14 15 15 15 15 15 14 14 13 13 12 11 10 10 10 10 10 10 9 9 7 5 4 3 2 2 2 2 2 2 2 2 2 2
11 11 12 12 13 14 14 14 14 14 14 14 13 13 13 14 14 13 13 13 12 11 10 10 10 10 11 11 11 10 9 7 6 4 4 4 4 3 3 3 3 3 3
11 11 11 11 11 12 13 13 13 13 12 12 11 11 12 13 14 14 14 14 13 12 11 11 11 11 11 12 12 12 11 10 8 7 6 5 5 4 4 4 4 4 4
10 10 10 10 10 11 12 12 12 12 11 11 11 11 11 12 13 14 14 15 16 16 15 14 14 13 13 14 15 14 12 11 11 9 8 6 5 5 5 5 5 5 5
9 9 9 9 10 11 11 12 12 12 11 10 11 11 12 12 13 14 15 17 18 18 17 17 17 16 17 17 17 16 14 13 12 10 8 7 6 5 5 5 5 5 5